Погода в Кочетовке

Россия / Республика Мордовия     53°47′42″N   44°15′30″E
темп.,
°C
ветер,
м/с
пор.,
м/с
влажн.,
%
обл.,
%
осадки,
мм/ч
давл.,
гПа
погр.,
м
7 мая, пт
пт700:00+12ю61470100 0.0 1012404
03:00+10ю51372100 0.0 1012337
06:00+10ююв61469100 0.0 1011347
09:00+11ююв61276100 0.3 1011437
12:00+13юз71079100 0.8 10111091
15:00+7ссз4591100 4.1 1015368
18:00+9с3784100 0.0 1016520
21:00+6всв1189100 0.0 101711
8 мая, сб
сб800:00+5вюв11880 0.0 101810
03:00+5вюв11885 0.0 101810
06:00+6в12844 0.0 101885
09:00+11вюв466686 0.0 1016691
12:00+14ююв466649 0.0 10141217
15:00+16ю6856100 0.0 10121469
18:00+14ю51068100 0.0 1011411
21:00+11ю51371100 0.0 1011349
9 мая, вс
вс900:00+11ююв51483100 0.8 1010427
03:00+11зюз4895100 0.6 1010478
06:00+10юз4896100 0.1 1010448
09:00+8зсз4791100 0.2 1013402
12:00+8сз5686100 0.1 1015639
15:00+7ссз3792100 2.4 1017571
18:00+6с6994100 3.6 1018715
21:00+6с61093100 5.3 1021773
10 мая, пн
пн1000:00+6с5109297 0.0 1022688
03:00+4с41195100 0.0 1025438
06:00+5ссв61391100 0.0 1026572
09:00+7ссв71287100 0.0 1028697
12:00+12св796228 0.0 10271068
15:00+13св785763 0.0 10281171
18:00+12св6106674 0.0 1028546
21:00+7св49815 0.0 1030159
11 мая, вт
вт1100:00+6св4137868 0.0 1030238
03:00+6св514755 0.0 1030289
06:00+7всв514755 0.0 1031383
09:00+12всв7106310 0.0 1031589
12:00+16всв78534 0.0 1030855
15:00+17всв67524 0.0 1029944
18:00+15в48671 0.0 1029309
21:00+10в410825 0.0 1030193